Wichita, KS

5:39 PM CST on February 09, 2016 (GMT -0600)
Wichita Eisenhower National Airport

Weather History for KICT - June, 2014

Change the Weather History Date:

Sunday, June 29, 2014

  Actual Average Record
Temperature  
Mean Temperature 79 °F 80 °F  
Max Temperature 88 °F 91 °F 105 °F (1990)
Min Temperature 70 °F 68 °F 54 °F (1923)
Degree Days  
Heating Degree Days 0 0  
Month to date heating degree days 0 3  
Since 1 June heating degree days 0 3  
Since 1 July heating degree days 4939 4591  
Cooling Degree Days 14 15  
Month to date cooling degree days 324 314  
Year to date cooling degree days 591 450  
Since 1 June cooling degree days 324 314  
Growing Degree Days 29 (Base 50)    
Moisture  
Dew Point 72 °F    
Average Humidity 82    
Maximum Humidity 100    
Minimum Humidity 63    
Precipitation  
Precipitation 0.01 in 0.14 in 2.38 in (1987)
Month to date precipitation 9.33 5.06  
Year to date precipitation 15.40 16.92  
Snow  
Snow 0.00 in 0.00 in 0.00 in (2007)
Month to date snowfall 0.0 0.0  
Since 1 June snowfall 0.0 0.0  
Since 1 July snowfall 23.0 14.9  
Snow Depth 0.00 in    
Sea Level Pressure  
Sea Level Pressure 29.86 in    
Wind  
Wind Speed 13 mph (SSE)    
Max Wind Speed 26 mph    
Max Gust Speed 37 mph    
Visibility 7 miles    
Events      
T = Trace of Precipitation, MM = Missing Value Source: NWS Daily Summary

Daily Weather History Graph

Daily Weather History Graph

Search for Another Location

Airport or City:

Trip Planner

Search our weather history database for the weather conditions in past years. The results will help you decide how hot, cold, wet, or windy it might be!

Date:

Astronomy

Jun. 29, 2014 Rise Set
Actual Time 6:11 AM CDT 8:55 PM CDT
Civil Twilight 5:39 AM CDT 9:26 PM CDT
Nautical Twilight 5:00 AM CDT 10:05 PM CDT
Astronomical Twilight 4:16 AM CDT 10:49 PM CDT
Moon 8:27 AM CDT (6/29) 10:20 PM CDT (6/29)
Length of Visible Light 15h 46m
Length of Day
14h 44m
Waxing Crescent, 5% of the Moon is Illuminated
Jun 29
Waxing Crescent
Jul 5
First Quarter
Jul 12
Full
Jul 18
Last Quarter
Jul 26
New

Hourly Weather History & Observations

Time (CDT) Temp. Heat Index Dew Point Humidity Pressure Visibility Wind Dir Wind Speed Gust Speed Precip Events Conditions
12:53 AM 71.1 °F - 68.0 °F 90% 29.90 in 9.0 mi SE 9.2 mph - N/A   Mostly Cloudy
1:53 AM 70.0 °F - 68.0 °F 93% 29.89 in 9.0 mi SE 9.2 mph - N/A   Mostly Cloudy
2:16 AM 70.0 °F - 68.0 °F 93% 29.91 in 8.0 mi SSE 11.5 mph - N/A   Mostly Cloudy
2:53 AM 71.1 °F - 69.1 °F 93% 29.87 in 7.0 mi South 9.2 mph - N/A   Scattered Clouds
3:53 AM 70.0 °F - 68.0 °F 93% 29.86 in 6.0 mi SSE 8.1 mph - N/A   Scattered Clouds
4:53 AM 70.0 °F - 68.0 °F 93% 29.86 in 6.0 mi SSE 9.2 mph - N/A   Scattered Clouds
5:53 AM 70.0 °F - 69.1 °F 97% 29.86 in 5.0 mi SSE 10.4 mph - N/A   Scattered Clouds
6:53 AM 71.1 °F - 70.0 °F 96% 29.87 in 5.0 mi SSE 6.9 mph - N/A   Mostly Cloudy
7:53 AM 73.0 °F - 71.1 °F 93% 29.89 in 6.0 mi SSE 12.7 mph - N/A   Overcast
8:53 AM 75.9 °F - 72.0 °F 87% 29.91 in 6.0 mi South 10.4 mph - N/A   Overcast
9:38 AM 77.0 °F - 72.0 °F 84% 29.97 in 6.0 mi WSW 3.5 mph - N/A   Haze
9:53 AM 77.0 °F - 72.0 °F 84% 29.94 in 6.0 mi WNW 4.6 mph - N/A   Haze
10:53 AM 75.9 °F - 72.0 °F 87% 29.96 in 5.0 mi North 12.7 mph - 0.01 in   Overcast
11:32 AM 75.9 °F - 72.0 °F 87% 29.96 in 5.0 mi NE 9.2 mph - N/A   Overcast
11:53 AM 77.0 °F - 72.0 °F 84% 29.89 in 5.0 mi East 11.5 mph - N/A   Haze
12:53 PM 81.0 °F 86.2 °F 73.9 °F 79% 29.84 in 6.0 mi SSE 15.0 mph 24.2 mph N/A   Haze
1:40 PM 82.9 °F 90.2 °F 75.0 °F 77% 29.88 in 6.0 mi South 20.7 mph 28.8 mph N/A   Haze
1:53 PM 84.0 °F 91.9 °F 75.0 °F 74% 29.83 in 6.0 mi South 19.6 mph 26.5 mph N/A   Haze
2:53 PM 86.0 °F 95.1 °F 75.0 °F 70% 29.80 in 7.0 mi South 19.6 mph 27.6 mph N/A   Overcast
3:14 PM 86.0 °F 95.1 °F 75.0 °F 70% 29.84 in 7.0 mi South 23.0 mph 29.9 mph N/A   Overcast
3:53 PM 88.0 °F 97.5 °F 75.0 °F 65% 29.79 in 8.0 mi South 25.3 mph 36.8 mph N/A   Mostly Cloudy
4:53 PM 87.1 °F 95.4 °F 73.9 °F 65% 29.81 in 8.0 mi South 23.0 mph 34.5 mph N/A   Mostly Cloudy
5:53 PM 87.1 °F 95.4 °F 73.9 °F 65% 29.79 in 8.0 mi South 12.7 mph - N/A   Mostly Cloudy
6:53 PM 87.1 °F 96.3 °F 75.0 °F 67% 29.79 in 8.0 mi South 13.8 mph - N/A   Mostly Cloudy
7:53 PM 84.9 °F 93.3 °F 75.0 °F 72% 29.78 in 8.0 mi South 12.7 mph - N/A   Mostly Cloudy
8:53 PM 82.9 °F 89.4 °F 73.9 °F 74% 29.77 in 8.0 mi South 9.2 mph - N/A   Partly Cloudy
9:53 PM 82.0 °F 87.9 °F 73.9 °F 76% 29.78 in 8.0 mi South 11.5 mph - N/A   Partly Cloudy
10:53 PM 81.0 °F 85.2 °F 72.0 °F 74% 29.79 in 8.0 mi South 15.0 mph - N/A   Clear
11:53 PM 80.1 °F 83.8 °F 72.0 °F 76% 29.79 in 8.0 mi South 13.8 mph - N/A   Clear